| time (UTC) | temp C | wind direction | speed KPH | gust KPH | rain 1hr cm | rain 24hr cm | rain mn cm | humidity % | barometer mb |
| 20260505082518 | 5 | 100 | 0.0 | 0.0 | 0.00 | 0.00 | 0.00 | 73 | |
| 20260505082015 | 5 | 108 | 0.0 | 0.0 | 0.00 | 0.00 | 0.00 | 71 | |
| 20260505081512 | 5 | 99 | 0.0 | 0.0 | 0.00 | 0.00 | 0.00 | 70 | |
| 20260505081009 | 6 | 93 | 0.0 | 3.2 | 0.00 | 0.00 | 0.00 | 69 | |
| 20260505080505 | 6 | 84 | 1.6 | 4.8 | 0.00 | 0.00 | 0.00 | 68 | |
| 20260505080001 | 6 | 19 | 3.2 | 6.4 | 0.00 | 0.00 | 0.00 | 68 | |
| 20260505075457 | 6 | 323 | 4.8 | 9.7 | 0.00 | 0.00 | 0.00 | 68 | |
| 20260505074955 | 6 | 272 | 8.0 | 9.7 | 0.00 | 0.00 | 0.00 | 68 | |
| 20260505074452 | 6 | 61 | 4.8 | 9.7 | 0.00 | 0.00 | 0.00 | 67 | |
| 20260505073949 | 6 | 303 | 4.8 | 4.8 | 0.00 | 0.00 | 0.00 | 67 | |
| 20260505073447 | 7 | 337 | 3.2 | 4.8 | 0.00 | 0.00 | 0.00 | 66 | |
| 20260505072944 | 7 | 353 | 4.8 | 9.7 | 0.00 | 0.00 | 0.00 | 66 | |
| 20260505072440 | 7 | 45 | 4.8 | 6.4 | 0.00 | 0.00 | 0.00 | 66 | |
| 20260505071936 | 7 | 334 | 3.2 | 6.4 | 0.00 | 0.00 | 0.00 | 66 | |
| 20260505071432 | 7 | 314 | 6.4 | 9.7 | 0.00 | 0.00 | 0.00 | 65 | |
| 20260505070930 | 7 | 313 | 3.2 | 6.4 | 0.00 | 0.00 | 0.00 | 66 | |
| 20260505070427 | 7 | 7 | 3.2 | 4.8 | 0.00 | 0.00 | 0.00 | 66 | |
| 20260505065922 | 7 | 86 | 1.6 | 4.8 | 0.00 | 0.00 | 0.00 | 66 | |
| 20260505065419 | 7 | 67 | 3.2 | 6.4 | 0.00 | 0.00 | 0.00 | 67 | |
| 20260505064916 | 7 | 309 | 3.2 | 6.4 | 0.00 | 0.00 | 0.00 | 67 | |
| 20260505064413 | 7 | 27 | 4.8 | 11.3 | 0.00 | 0.00 | 0.00 | 67 | |
| 20260505063912 | 7 | 295 | 6.4 | 12.9 | 0.00 | 0.00 | 0.00 | 67 | |
| 20260505063407 | 7 | 314 | 6.4 | 12.9 | 0.00 | 0.00 | 0.00 | 67 | |
| 20260505062904 | 7 | 56 | 3.2 | 16.1 | 0.00 | 0.00 | 0.00 | 67 | |
| 20260505062401 | 7 | 33 | 3.2 | 9.7 | 0.00 | 0.00 | 0.00 | 66 | |
| 20260505061858 | 7 | 24 | 4.8 | 14.5 | 0.00 | 0.00 | 0.00 | 67 | |
| 20260505061356 | 7 | 279 | 4.8 | 6.4 | 0.00 | 0.00 | 0.00 | 68 | |
| 20260505060853 | 7 | 296 | 6.4 | 16.1 | 0.00 | 0.00 | 0.00 | 68 | |
| 20260505060350 | 7 | 293 | 6.4 | 9.7 | 0.00 | 0.00 | 0.00 | 67 | |
| 20260505055846 | 7 | 83 | 3.2 | 9.7 | 0.00 | 0.00 | 0.00 | 67 | |
| 20260505055342 | 7 | 301 | 3.2 | 6.4 | 0.00 | 0.00 | 0.00 | 67 | |
| 20260505054840 | 7 | 35 | 6.4 | 11.3 | 0.00 | 0.00 | 0.00 | 66 | |
| 20260505054337 | 7 | 21 | 4.8 | 6.4 | 0.00 | 0.00 | 0.00 | 64 | |
| 20260505053835 | 8 | 354 | 3.2 | 6.4 | 0.00 | 0.00 | 0.00 | 63 | |
| 20260505053332 | 8 | 266 | 4.8 | 6.4 | 0.00 | 0.00 | 0.00 | 62 | |
| 20260505052828 | 8 | 92 | 0.0 | 3.2 | 0.00 | 0.00 | 0.00 | 62 | |
| 20260505052325 | 8 | 291 | 6.4 | 6.4 | 0.00 | 0.00 | 0.00 | 59 | |
| 20260505051822 | 8 | 11 | 3.2 | 6.4 | 0.00 | 0.00 | 0.00 | 54 | |
| 20260505051320 | 9 | 87 | 0.0 | 3.2 | 0.00 | 0.00 | 0.00 | 50 | |
| 20260505050818 | 9 | 71 | 1.6 | 6.4 | 0.00 | 0.00 | 0.00 | 49 | |
| 20260505050316 | 9 | 84 | 3.2 | 4.8 | 0.00 | 0.00 | 0.00 | 49 | |
| 20260505041746 | 8 | 41 | 3.2 | 3.2 | 0.00 | 0.00 | 0.00 | 60 | |
| 20260505041243 | 8 | 90 | 1.6 | 4.8 | 0.00 | 0.00 | 0.00 | 61 | |
| 20260505040740 | 8 | 282 | 3.2 | 4.8 | 0.00 | 0.00 | 0.00 | 61 | |
| 20260505040238 | 8 | 100 | 6.4 | 11.3 | 0.00 | 0.00 | 0.00 | 61 | |
| 20260505035735 | 8 | 346 | 6.4 | 9.7 | 0.00 | 0.00 | 0.00 | 61 | |
| 20260505035230 | 8 | 31 | 3.2 | 12.9 | 0.00 | 0.00 | 0.00 | 59 | |
| 20260505034727 | 8 | 307 | 4.8 | 6.4 | 0.00 | 0.00 | 0.00 | 60 | |
| 20260505034224 | 8 | 66 | 1.6 | 4.8 | 0.00 | 0.00 | 0.00 | 61 | |
| 20260505033721 | 8 | 12 | 6.4 | 9.7 | 0.00 | 0.00 | 0.00 | 61 | |
| 20260505033219 | 8 | 281 | 9.7 | 12.9 | 0.00 | 0.00 | 0.00 | 64 | |
| 20260505032717 | 8 | 271 | 8.0 | 11.3 | 0.00 | 0.00 | 0.00 | 62 | |
| 20260505032212 | 8 | 189 | 3.2 | 3.2 | 0.00 | 0.00 | 0.00 | 63 | |
| 20260505031710 | 8 | 36 | 3.2 | 3.2 | 0.00 | 0.00 | 0.00 | 64 | |
| 20260505031206 | 8 | 94 | 3.2 | 3.2 | 0.00 | 0.00 | 0.00 | 64 | |
| 20260505030703 | 8 | 45 | 4.8 | 6.4 | 0.00 | 0.00 | 0.00 | 64 | |
| 20260505030159 | 8 | 279 | 4.8 | 6.4 | 0.00 | 0.00 | 0.00 | 60 | |
| 20260505025655 | 9 | 210 | 1.6 | 4.8 | 0.00 | 0.00 | 0.00 | 60 | |
| 20260505025153 | 8 | 67 | 1.6 | 3.2 | 0.00 | 0.00 | 0.00 | 59 | |
| 20260505024651 | 8 | 240 | 3.2 | 9.7 | 0.00 | 0.00 | 0.00 | 62 | |
| 20260505024147 | 8 | 317 | 6.4 | 6.4 | 0.00 | 0.00 | 0.00 | 60 | |
| 20260505023645 | 8 | 13 | 3.2 | 12.9 | 0.00 | 0.00 | 0.00 | 61 | |
| 20260505023143 | 8 | 33 | 4.8 | 9.7 | 0.00 | 0.00 | 0.00 | 62 | |
| 20260505022640 | 8 | 354 | 6.4 | 9.7 | 0.00 | 0.00 | 0.00 | 62 | |
| 20260505022137 | 8 | 77 | 3.2 | 4.8 | 0.00 | 0.00 | 0.00 | 61 | |
| 20260505021633 | 9 | 67 | 3.2 | 4.8 | 0.00 | 0.00 | 0.00 | 60 | |
| 20260505021130 | 9 | 30 | 3.2 | 6.4 | 0.00 | 0.00 | 0.00 | 58 | |
| 20260505020626 | 9 | 88 | 0.0 | 1.6 | 0.00 | 0.00 | 0.00 | 56 | |
| 20260505020122 | 9 | 305 | 3.2 | 3.2 | 0.00 | 0.00 | 0.00 | 56 | |
| 20260505015619 | 9 | 81 | 1.6 | 4.8 | 0.00 | 0.00 | 0.00 | 58 | |
| 20260505015116 | 10 | 75 | 1.6 | 3.2 | 0.00 | 0.00 | 0.00 | 56 | |
| 20260505014613 | 10 | 79 | 1.6 | 6.4 | 0.00 | 0.00 | 0.00 | 56 | |
| 20260505014110 | 10 | 352 | 1.6 | 3.2 | 0.00 | 0.00 | 0.00 | 55 | |
| 20260505013607 | 10 | 336 | 3.2 | 4.8 | 0.00 | 0.00 | 0.00 | 53 | |
| 20260505013104 | 10 | 94 | 3.2 | 4.8 | 0.00 | 0.00 | 0.00 | 53 | |
| 20260505012602 | 10 | 297 | 6.4 | 11.3 | 0.00 | 0.00 | 0.00 | 51 | |
| 20260505012059 | 10 | 78 | 3.2 | 3.2 | 0.00 | 0.00 | 0.00 | 47 | |
| 20260505011554 | 11 | 68 | 0.0 | 1.6 | 0.00 | 0.00 | 0.00 | 46 | |
| 20260505011052 | 11 | 107 | 3.2 | 3.2 | 0.00 | 0.00 | 0.00 | 46 | |
| 20260505010547 | 11 | 3 | 6.4 | 9.7 | 0.00 | 0.00 | 0.00 | 46 | |
| 20260505010044 | 11 | 92 | 0.0 | 1.6 | 0.00 | 0.00 | 0.00 | 47 | |
| 20260505005540 | 11 | 341 | 1.6 | 3.2 | 0.00 | 0.00 | 0.00 | 46 | |
| 20260505005038 | 11 | 328 | 9.7 | 12.9 | 0.00 | 0.00 | 0.00 | 45 | |
| 20260505004535 | 11 | 113 | 1.6 | 3.2 | 0.00 | 0.00 | 0.00 | 46 | |
| 20260505004032 | 11 | 85 | 0.0 | 3.2 | 0.00 | 0.00 | 0.00 | 47 | |
| 20260505003529 | 11 | 356 | 4.8 | 4.8 | 0.00 | 0.00 | 0.00 | 47 | |
| 20260505003026 | 11 | 316 | 3.2 | 4.8 | 0.00 | 0.00 | 0.00 | 47 | |
| 20260505002521 | 11 | 95 | 0.0 | 3.2 | 0.00 | 0.00 | 0.00 | 48 | |
| 20260505002020 | 11 | 132 | 4.8 | 11.3 | 0.00 | 0.00 | 0.00 | 47 | |
| 20260505001517 | 11 | 273 | 8.0 | 9.7 | 0.00 | 0.00 | 0.00 | 47 | |
| 20260505001014 | 11 | 112 | 0.0 | 4.8 | 0.00 | 0.00 | 0.00 | 47 | |
| 20260505000512 | 11 | 127 | 0.0 | 3.2 | 0.00 | 0.00 | 0.00 | 47 | |
| 20260505000009 | 11 | 2 | 6.4 | 11.3 | 0.00 | 0.00 | 0.00 | 48 | |
| 20260504235505 | 11 | 66 | 6.4 | 11.3 | 0.00 | 0.00 | 0.00 | 48 | |
| 20260504235002 | 11 | 94 | 1.6 | 4.8 | 0.00 | 0.00 | 0.00 | 48 | |
| 20260504234459 | 11 | 149 | 1.6 | 3.2 | 0.00 | 0.00 | 0.00 | 48 | |
| 20260504233956 | 10 | 83 | 3.2 | 12.9 | 0.00 | 0.00 | 0.00 | 52 | |
| 20260504233451 | 10 | 124 | 3.2 | 4.8 | 0.00 | 0.00 | 0.00 | 57 | |
| 20260504232949 | 10 | 98 | 4.8 | 9.7 | 0.00 | 0.00 | 0.00 | 59 | |
| 20260504232446 | 10 | 93 | 1.6 | 4.8 | 0.00 | 0.00 | 0.00 | 60 | |
| 20260504231943 | 10 | 97 | 1.6 | 6.4 | 0.00 | 0.00 | 0.00 | 60 | |
| 20260504231439 | 9 | 346 | 3.2 | 11.3 | 0.00 | 0.00 | 0.00 | 63 | |
| 20260504230935 | 8 | 79 | 1.6 | 6.4 | 0.00 | 0.00 | 0.00 | 64 | |
| 20260504230432 | 9 | 34 | 9.7 | 14.5 | 0.00 | 0.00 | 0.00 | 63 | |
| 20260504225932 | 10 | 72 | 6.4 | 14.5 | 0.00 | 0.00 | 0.00 | 61 | |
| 20260504225428 | 11 | 60 | 8.0 | 12.9 | 0.00 | 0.00 | 0.00 | 49 | |
| 20260504224925 | 12 | 135 | 6.4 | 20.9 | 0.00 | 0.00 | 0.00 | 44 | |
| 20260504224422 | 13 | 345 | 4.8 | 9.7 | 0.00 | 0.00 | 0.00 | 42 | |
| 20260504223919 | 13 | 93 | 1.6 | 3.2 | 0.00 | 0.00 | 0.00 | 41 | |
| 20260504223414 | 13 | 90 | 0.0 | 1.6 | 0.00 | 0.00 | 0.00 | 43 | |
| 20260504222910 | 13 | 102 | 0.0 | 1.6 | 0.00 | 0.00 | 0.00 | 47 | |
| 20260504222408 | 13 | 292 | 3.2 | 6.4 | 0.00 | 0.00 | 0.00 | 47 | |
| 20260504221906 | 12 | 51 | 1.6 | 4.8 | 0.00 | 0.00 | 0.00 | 47 | |
| 20260504221402 | 12 | 356 | 4.8 | 6.4 | 0.00 | 0.00 | 0.00 | 50 | |
| 20260504220859 | 12 | 99 | 0.0 | 1.6 | 0.00 | 0.00 | 0.00 | 50 | |
| 20260504220356 | 12 | 295 | 9.7 | 16.1 | 0.00 | 0.00 | 0.00 | 51 | |
| 20260504215853 | 12 | 148 | 3.2 | 12.9 | 0.00 | 0.00 | 0.00 | 50 | |
| 20260504215349 | 11 | 137 | 1.6 | 4.8 | 0.00 | 0.00 | 0.00 | 52 | |
| 20260504214846 | 11 | 333 | 9.7 | 14.5 | 0.00 | 0.00 | 0.00 | 52 | |
| 20260504214343 | 11 | 213 | 3.2 | 4.8 | 0.00 | 0.00 | 0.00 | 54 | |
| 20260504213839 | 11 | 109 | 4.8 | 11.3 | 0.00 | 0.00 | 0.00 | 53 | |
| 20260504213335 | 12 | 160 | 3.2 | 12.9 | 0.00 | 0.00 | 0.00 | 53 | |
| 20260504212833 | 13 | 110 | 1.6 | 12.9 | 0.00 | 0.00 | 0.00 | 45 | |
| 20260504212328 | 13 | 123 | 0.0 | 4.8 | 0.00 | 0.00 | 0.00 | 45 | |
| 20260504211827 | 13 | 111 | 1.6 | 4.8 | 0.00 | 0.00 | 0.00 | 45 | |
| 20260504211328 | 13 | 142 | 4.8 | 9.7 | 0.00 | 0.00 | 0.00 | 46 | |
| 20260504210825 | 12 | 23 | 4.8 | 6.4 | 0.00 | 0.00 | 0.00 | 48 | |
| 20260504210322 | 12 | 304 | 6.4 | 9.7 | 0.00 | 0.00 | 0.00 | 50 | |
| 20260504205820 | 13 | 62 | 0.0 | 4.8 | 0.00 | 0.00 | 0.00 | 51 | |
| 20260504205317 | 12 | 100 | 0.0 | 3.2 | 0.00 | 0.00 | 0.00 | 53 | |
| 20260504204815 | 11 | 107 | 0.0 | 4.8 | 0.00 | 0.00 | 0.00 | 55 | |
| 20260504204313 | 11 | 132 | 6.4 | 11.3 | 0.00 | 0.00 | 0.00 | 58 | |
| 20260504203812 | 10 | 108 | 1.6 | 6.4 | 0.00 | 0.00 | 0.00 | 56 | |
| 20260504203309 | 10 | 117 | 3.2 | 9.7 | 0.00 | 0.00 | 0.00 | 54 | |
| 20260504202804 | 10 | 102 | 3.2 | 14.5 | 0.00 | 0.00 | 0.00 | 58 | |
| 20260504202302 | 11 | 352 | 3.2 | 12.9 | 0.00 | 0.00 | 0.00 | 57 | |
| 20260504201758 | 11 | 243 | 3.2 | 12.9 | 0.00 | 0.00 | 0.00 | 52 | |
| 20260504201256 | 11 | 341 | 6.4 | 17.7 | 0.00 | 0.00 | 0.00 | 53 | |
| 20260504200754 | 13 | 83 | 6.4 | 14.5 | 0.00 | 0.00 | 0.00 | 44 | |
| 20260504200249 | 13 | 317 | 11.3 | 24.1 | 0.00 | 0.00 | 0.00 | 40 | |
| 20260504195746 | 15 | 333 | 4.8 | 22.5 | 0.00 | 0.00 | 0.00 | 34 | |
| 20260504195241 | 17 | 343 | 3.2 | 6.4 | 0.00 | 0.00 | 0.00 | 29 | |
| 20260504194739 | 16 | 11 | 1.6 | 3.2 | 0.00 | 0.00 | 0.00 | 31 | |
| 20260504194235 | 17 | 56 | 1.6 | 14.5 | 0.00 | 0.00 | 0.00 | 28 | |
| 20260504193731 | 17 | 131 | 3.2 | 11.3 | 0.00 | 0.00 | 0.00 | 31 | |
| 20260504193229 | 18 | 330 | 6.4 | 11.3 | 0.00 | 0.00 | 0.00 | 30 | |
| 20260504192727 | 18 | 163 | 6.4 | 6.4 | 0.00 | 0.00 | 0.00 | 29 | |
| 20260504192225 | 18 | 86 | 1.6 | 9.7 | 0.00 | 0.00 | 0.00 | 31 | |
| 20260504191723 | 18 | 112 | 4.8 | 12.9 | 0.00 | 0.00 | 0.00 | 30 | |
| 20260504191220 | 17 | 174 | 4.8 | 6.4 | 0.00 | 0.00 | 0.00 | 32 | |
| 20260504190715 | 17 | 107 | 3.2 | 14.5 | 0.00 | 0.00 | 0.00 | 33 | |
| 20260504190212 | 15 | 113 | 1.6 | 4.8 | 0.00 | 0.00 | 0.00 | 36 | |
| 20260504185708 | 14 | 216 | 1.6 | 11.3 | 0.00 | 0.00 | 0.00 | 39 | |
| 20260504185205 | 14 | 156 | 4.8 | 9.7 | 0.00 | 0.00 | 0.00 | 41 | |
| 20260504184701 | 13 | 109 | 1.6 | 4.8 | 0.00 | 0.00 | 0.00 | 44 | |
| 20260504184156 | 12 | 191 | 3.2 | 6.4 | 0.00 | 0.00 | 0.00 | 48 | |
| 20260504183653 | 10 | 114 | 3.2 | 6.4 | 0.00 | 0.00 | 0.00 | 55 | |
| 20260504183150 | 10 | 124 | 1.6 | 14.5 | 0.00 | 0.00 | 0.00 | 57 | |
| 20260504182648 | 10 | 143 | 6.4 | 12.9 | 0.00 | 0.00 | 0.00 | 56 | |
| 20260504182145 | 10 | 141 | 6.4 | 12.9 | 0.00 | 0.00 | 0.00 | 52 | |
| 20260504181643 | 11 | 113 | 1.6 | 16.1 | 0.00 | 0.00 | 0.00 | 47 | |
| 20260504181140 | 12 | 131 | 6.4 | 12.9 | 0.00 | 0.00 | 0.00 | 43 | |
| 20260504180640 | 13 | 119 | 4.8 | 11.3 | 0.00 | 0.00 | 0.00 | 38 | |
| 20260504180138 | 13 | 102 | 1.6 | 1.6 | 0.00 | 0.00 | 0.00 | 34 | |
| 20260504175635 | 14 | 331 | 3.2 | 3.2 | 0.00 | 0.00 | 0.00 | 33 | |
| 20260504175131 | 13 | 260 | 1.6 | 6.4 | 0.00 | 0.00 | 0.00 | 34 | |
| 20260504174630 | 13 | 84 | 6.4 | 11.3 | 0.00 | 0.00 | 0.00 | 34 | |
| 20260504174125 | 13 | 92 | 0.0 | 4.8 | 0.00 | 0.00 | 0.00 | 34 | |
| 20260504173623 | 14 | 91 | 3.2 | 4.8 | 0.00 | 0.00 | 0.00 | 35 | |
| 20260504173120 | 13 | 82 | 3.2 | 4.8 | 0.00 | 0.00 | 0.00 | 36 | |
| 20260504172617 | 13 | 32 | 3.2 | 12.9 | 0.00 | 0.00 | 0.00 | 35 | |
| 20260504172113 | 13 | 136 | 1.6 | 3.2 | 0.00 | 0.00 | 0.00 | 35 | |
| 20260504171609 | 13 | 347 | 3.2 | 9.7 | 0.00 | 0.00 | 0.00 | 34 | |
| 20260504171107 | 14 | 85 | 0.0 | 4.8 | 0.00 | 0.00 | 0.00 | 35 | |
| 20260504170602 | 14 | 26 | 1.6 | 3.2 | 0.00 | 0.00 | 0.00 | 36 | |
| 20260504150947 | 10 | 105 | 4.8 | 4.8 | 0.00 | 0.00 | 0.00 | 47 | |
| 20260504150443 | 10 | 73 | 1.6 | 4.8 | 0.00 | 0.00 | 0.00 | 48 | |
| 20260504140910 | 7 | 91 | 1.6 | 4.8 | 0.00 | 0.00 | 0.00 | 60 | |
| 20260504140405 | 8 | 310 | 8.0 | 11.3 | 0.00 | 0.00 | 0.00 | 56 | |
| 20260504130331 | 5 | 159 | 1.6 | 4.8 | 0.00 | 0.00 | 0.00 | 53 | |
| 20260504120254 | 3 | 79 | 0.0 | 0.0 | 0.00 | 0.00 | 0.00 | 60 | |
| 20260504110218 | 2 | 93 | 0.0 | 3.2 | 0.00 | 0.00 | 0.00 | 68 | |
| 20260504100136 | 2 | 92 | 0.0 | 0.0 | 0.00 | 0.00 | 0.00 | 70 |